Location: Clermont
(50.2608°N, 4.3172°E)
Time: 23:58:10
(UTC+00:00)

Cosmos 1544 - Pass Details

Date: 13 August 2020
Orbit: 471 x 491 km, 82.5° (Epoch: 23 September)

Event Time Altitude Azimuth Distance (km) Brightness Sun altitude
Exits shadow 23:21:28 47° 349° (NNW) 660 4.0 -25.2°
Drops below altitude 10° 23:24:14 10° 6° (N) 1,692 6.8 -25.3°
Sets 23:26:23 0° 9° (N) 2,581 8.0 -25.3°
